Weather History for KLAL - February, 2014

Change the Weather History Date:

Thursday, February 13, 2014

  Actual Average Record
Temperature  
Mean Temperature 52 °F -  
Max Temperature 62 °F 71 °F 84 °F (1997)
Min Temperature 42 °F 52 °F 33 °F (2009)
Degree Days  
Heating Degree Days 13    
Growing Degree Days 2 (Base 50)    
Moisture  
Dew Point 51 °F    
Average Humidity 83    
Maximum Humidity 100    
Minimum Humidity 52    
Precipitation  
Precipitation 0.00 in - - ()
Sea Level Pressure  
Sea Level Pressure 29.85 in    
Wind  
Wind Speed 12 mph (West)    
Max Wind Speed 20 mph    
Max Gust Speed 30 mph    
Visibility 11 miles    
Events Rain    
Averages and records for this station are not official NWS values.
T = Trace of Precipitation, MM = Missing Value Source: NWS Daily Summary

Daily Weather History Graph

Daily Weather History Graph

Search for Another Location

Airport or City:

Trip Planner

Search our weather history database for the weather conditions in past years. The results will help you decide how hot, cold, wet, or windy it might be!

Date:

Astronomy

Feb. 13, 2014 Rise Set
Actual Time 7:07 AM EST 6:17 PM EST
Civil Twilight 6:43 AM EST 6:41 PM EST
Nautical Twilight 6:15 AM EST 7:09 PM EST
Astronomical Twilight 5:48 AM EST 7:36 PM EST
Moon 5:24 PM EST (2/13) 5:58 AM EST (2/13)
Length of Visible Light 11h 58m
Length of Day
11h 10m
Waxing Gibbous, 98% of the Moon is Illuminated
Feb 13
Waxing Gibbous
Feb 14
Full
Feb 22
Last Quarter
Mar 1
New
Mar 8
First Quarter

Hourly Weather History & Observations

Time (EST) Temp. Windchill Dew Point Humidity Pressure Visibility Wind Dir Wind Speed Gust Speed Precip Events Conditions
12:15 AM 60.8 °F - 60.8 °F 100% 29.74 in 10.0 mi SSW 9.2 mph - N/A   Clear
12:35 AM 60.8 °F - 60.8 °F 100% 29.74 in 10.0 mi SSW 10.4 mph - N/A   Scattered Clouds
12:55 AM 60.8 °F - 60.8 °F 100% 29.74 in 10.0 mi SSW 8.1 mph - N/A   Mostly Cloudy
1:15 AM 60.8 °F - 60.8 °F 100% 29.73 in 10.0 mi SSW 10.4 mph - N/A   Overcast
1:35 AM 60.8 °F - 60.8 °F 100% 29.73 in 10.0 mi SW 9.2 mph - N/A   Overcast
1:55 AM 62.6 °F - 62.6 °F 100% 29.74 in 5.0 mi West 18.4 mph 24.2 mph N/A Rain Light Rain
2:15 AM 62.6 °F - 62.6 °F 100% 29.74 in 10.0 mi West 12.7 mph 21.9 mph N/A   Overcast
2:35 AM 62.6 °F - 62.6 °F 100% 29.74 in 10.0 mi West 15.0 mph 24.2 mph N/A   Overcast
2:55 AM 62.6 °F - 60.8 °F 94% 29.74 in 10.0 mi West 19.6 mph 26.5 mph N/A   Overcast
3:15 AM 60.8 °F - 59.0 °F 94% 29.73 in 10.0 mi West 16.1 mph 24.2 mph N/A   Overcast
3:35 AM 60.8 °F - 57.2 °F 88% 29.73 in 10.0 mi West 16.1 mph 20.7 mph N/A   Overcast
3:55 AM 60.8 °F - 55.4 °F 82% 29.74 in 10.0 mi West 13.8 mph 19.6 mph N/A   Overcast
4:15 AM 60.8 °F - 55.4 °F 82% 29.74 in 10.0 mi West 18.4 mph 21.9 mph N/A   Overcast
4:35 AM 60.8 °F - 53.6 °F 77% 29.74 in 10.0 mi West 15.0 mph 20.7 mph N/A   Overcast
4:55 AM 60.8 °F - 53.6 °F 77% 29.75 in 10.0 mi West 17.3 mph 21.9 mph N/A   Overcast
5:15 AM 59.0 °F - 55.4 °F 88% 29.76 in 7.0 mi West 15.0 mph 20.7 mph N/A Rain Rain
5:35 AM 59.0 °F - 55.4 °F 88% 29.78 in 10.0 mi WNW 15.0 mph 21.9 mph N/A   Overcast
5:56 AM 59.0 °F - 55.4 °F 88% 29.79 in 10.0 mi WNW 16.1 mph 23.0 mph N/A   Overcast
6:51 AM 55.4 °F - 53.6 °F 94% 29.82 in 10.0 mi WNW 18.4 mph 25.3 mph N/A   Overcast
7:50 AM 55.4 °F - 51.8 °F 88% 29.86 in 12.0 mi WNW 16.1 mph 19.6 mph N/A   Overcast
8:50 AM 55.4 °F - 48.2 °F 77% 29.87 in 15.0 mi WNW 13.8 mph 24.2 mph N/A   Overcast
9:50 AM 59.0 °F - 48.2 °F 67% 29.89 in 15.0 mi WNW 19.6 mph 25.3 mph N/A   Mostly Cloudy
10:51 AM 59.0 °F - 44.6 °F 59% 29.90 in 15.0 mi WNW 19.6 mph 25.3 mph N/A   Mostly Cloudy
11:54 AM 59.0 °F - 44.6 °F 59% 29.90 in 15.0 mi WNW 19.6 mph 29.9 mph N/A   Mostly Cloudy
12:50 PM 60.8 °F - 42.8 °F 52% 29.89 in 20.0 mi WNW 19.6 mph 29.9 mph N/A   Mostly Cloudy
1:50 PM 60.8 °F - 42.8 °F 52% 29.87 in 20.0 mi West 18.4 mph 25.3 mph N/A   Scattered Clouds
2:50 PM 60.8 °F - 42.8 °F 52% 29.86 in 15.0 mi WNW 18.4 mph 28.8 mph N/A   Mostly Cloudy
3:50 PM 60.8 °F - 42.8 °F 52% 29.87 in 15.0 mi WNW 19.6 mph 26.5 mph N/A   Scattered Clouds
4:50 PM 55.4 °F - 42.8 °F 63% 29.91 in 15.0 mi NW 11.5 mph 17.3 mph N/A   Clear
7:50 PM 50.0 °F - 42.8 °F 76% 29.96 in 10.0 mi WNW 6.9 mph - N/A   Clear
8:50 PM 46.4 °F 43.5 °F 42.8 °F 87% 29.99 in 10.0 mi NW 5.8 mph - N/A   Clear
9:50 PM 46.4 °F - 42.8 °F 87% 30.00 in 10.0 mi Calm Calm - N/A   Clear
9:55 PM 44.6 °F - 41.0 °F 87% 30.01 in 10.0 mi Calm Calm - N/A   Clear
10:15 PM 44.6 °F - 41.0 °F 87% 30.01 in 10.0 mi Calm Calm - N/A   Clear
10:35 PM 44.6 °F 43.1 °F 41.0 °F 87% 30.01 in 10.0 mi NW 3.5 mph - N/A   Clear
10:55 PM 44.6 °F - 42.8 °F 93% 30.01 in 10.0 mi Calm Calm - N/A   Clear
11:15 PM 44.6 °F - 42.8 °F 93% 30.01 in 10.0 mi Calm Calm - N/A   Clear
11:35 PM 42.8 °F - 41.0 °F 93% 30.01 in 10.0 mi Calm Calm - N/A   Clear
11:55 PM 42.8 °F - 41.0 °F 93% 30.01 in 10.0 mi Calm Calm - N/A   Clear